Погода в Валуйках

Россия / Белгородская область     50°12′40″N   38°05′59″E
темп.,
°C
ветер,
м/с
пор.,
м/с
влажн.,
%
обл.,
%
осадки,
мм/ч
давл.,
гПа
погр.,
м
24 июля, сб
сб2400:00+16сз22700 0.0 101221
03:00+15сз22740 0.0 101216
06:00+16зсз227792 0.0 101246
09:00+21зсз346396 0.0 1013360
12:00+25зсз454647 0.0 10131333
15:00+26сз454599 0.0 10132286
18:00+24с24576 0.0 1014854
21:00+20ссв36659 0.1 1016118
25 июля, вс
вс2500:00+17св22676 0.0 101723
03:00+16св236722 0.0 101862
06:00+16ссв237220 0.0 101960
09:00+21ссв355472 0.0 1020450
12:00+23св45450 0.0 10211047
15:00+26ссв34390 0.0 10201900
18:00+25с34460 0.0 10211061
21:00+19ссв33560 0.0 102221
26 июля, пн
пн2600:00+17св33570 0.0 102243
03:00+15всв22740 0.0 102320
06:00+16св2475100 0.0 102480
09:00+22св34530 0.0 1023495
12:00+26всв34380 0.0 10231811
15:00+27св34360 0.0 10222166
18:00+26св35430 0.0 1022553
21:00+19всв22560 0.0 102214
27 июля, вт
вт2700:00+17всв22580 0.0 102321
03:00+15св22610 0.0 102321
06:00+15св36630 0.0 1023106
09:00+22всв57490 0.0 1023503
12:00+26всв55380 0.0 10221771
15:00+27св44350 0.0 10212080
18:00+26св35420 0.0 1021507
21:00+20св22490 0.0 102115
28 июля, ср
ср2800:00+18всв22530 0.0 102111
03:00+17св11550 0.0 102111
06:00+17св22600 0.0 102116
09:00+24в34440 0.0 1020420
12:00+28вюв33330 0.0 10181697
15:00+29вюв22310 0.0 10172297
18:00+28всв22375 0.0 1016675
21:00+22в3344100 0.0 101538